Regional Weather Roundup
Issued by NWS New Orleans/Baton Rouge, LA

Home | Current Version | Previous Version | Text Only | Print | Product List | Glossary Off
Versions: 1 2 3 4 5 6 7 8 9 10 11 12 13 14 15 16 17 18 19 20 21 22 23 24 25 26 27 28 29 30 31 32 33 34 35 36 37 38 39 40 41 42 43 44 45 46 47 48 49 50

669
ASUS44 KLIX 270310
RWRLIX
NEW ORLEANS REGIONAL WEATHER ROUNDUP
NATIONAL WEATHER SERVICE NEW ORLEANS LA
900 PM CST WED NOV 26 2014

NOTE: "FAIR" INDICATES FEW OR NO CLOUDS BELOW 12,000 FEET WITH NO
      SIGNIFICANT WEATHER AND/OR OBSTRUCTIONS TO VISIBILITY.
      SKY/WX - SKY CONDITION AND SIGNIFICANT WEATHER.
      TMP - AIR TEMPERATURE.     DP    - DEWPOINT TEMPERATURE.
      RH  - RELATIVE HUMIDITY.   PRES  - PRESSURE.
      HI  - HEAT INDEX.          WCI   - WIND CHILL INDEX.

*  THESE STATIONS ARE NOT NWS OR FAA STATIONS AND ARE NOT UNDER
   NWS QUALITY CONTROL.

LAZ038-040-048-061>063-065>067-069-270400-
SOUTHEAST LOUISIANA

CITY           SKY/WX    TMP DP  RH WIND       PRES   REMARKS
N.O. AUDUBON     N/A     54  48  81 MISG        N/A
N.O. INTL ARPT CLEAR     57  45  64 SW9       30.24R
N.O. LAKEFRONT CLEAR     58  45  62 SW15      30.24R
N.O. DOWNTOWN*   N/A     57  43  58 SW7       30.25R
SLIDELL        CLEAR     58  46  64 SW7       30.21R
BATON ROUGE    CLEAR     54  43  66 W7        30.23R
BOOTHVILLE     CLEAR     62  49  62 W12       30.27R
BELLE CHASSE   CLEAR     55  45  68 SW7       30.24R
BOGALUSA*        N/A     54  40  59 W6        30.21R
NEW ROADS*       N/A     53  43  68 CALM      30.23R
GONZALES*        N/A     55  48  75 SW5       30.24R
HAMMOND*       CLEAR     57  41  54 W7        30.23R
HOUMA*         CLEAR     55  50  81 SW5       30.27R
PORT FOURCHON* CLEAR     63  54  72 SW9       30.30S

$$

MSZ070-080>082-270400-
SOUTHERN MISSISSIPPI

CITY           SKY/WX    TMP DP  RH WIND       PRES   REMARKS
MCCOMB         CLEAR     55  40  56 W5        30.21R
GULFPORT       CLEAR     57  45  64 SW7       30.20S
BILOXI         CLEAR     57  49  75 SW12G18   30.20S
PASCAGOULA     CLEAR     57  45  64 SW6       30.20S
STENNIS ARPT*  CLEAR     50  41  71 SW5       30.21

$$

COASTAL OBSERVATIONS
LAKE AND NEARSHORE STATIONS

STATION/POSITION TIME  TEMP    WIND        PRES    WAVE
                       AIR SEA DIR/SP/G            HT/PER
                 (UTC) (F)     (DEG/KT/KT) (MB)    (FT/S)
PASCAGOULA       0300   60     250/ 16/ 22 1022.1
WAVELAND YACHT   0300   58     250/  8/ 11 1022.0
GRAND ISLE       0300   61 60  250/  9/ 11 1025.1
SOUTHWEST PASS   0300   65                 1025.4
NEW CANAL        0300   58 54  220/  7/ 12 1024.1
SHELL BEACH      0300   56 53  230/  9/ 12 1023.7

OFFSHORE STATIONS

STATION/POSITION TIME  TEMP    WIND        PRES    WAVE
                       AIR SEA DIR/SP/G            HT/PER
                 (UTC) (F)     (DEG/KT/KT) (MB)    (FT/S)
64 S DAUPHIN ISL 0239   65 70  260/ 19/ 23 1024.9    3/ 5

$$




USA.gov is the U.S. government's official web portal to all federal, state and local government web resources and services.